{"data":{"norad_id":61016,"epoch":"2026-05-25T03:37:01.661088Z","epoch_age_seconds":55338,"freshness":"FRESH","line1":"1 61016U 24159F   26145.15071367  .00001202  00000+0  16935-3 0  9994","line2":"2 61016  49.9969 190.1952 0016852 347.8248  12.2281 14.84150105 93341","mean_motion":14.84150105,"eccentricity":0.0016852,"inclination_deg":49.9969,"raan_deg":190.1952,"arg_perigee_deg":347.8248,"mean_anomaly_deg":12.2281,"bstar":0.00016935,"rev_number":9334,"period_min":97.025226434222,"perigee_km":604.46785632651,"apogee_km":628.04175446742,"semimajor_km":6994.391805397,"source":"CELESTRAK","updated_at":"2026-05-25T13:38:02.277279Z"}}